Weather observations for the past three days for
Twentynine Palms SELF Airport
| Date | Time (pdt) | Wind (kph) | Vis. (km) | Weather | Sky Cond. | Temperature (ºC) | Relative Humidity | Wind Chill (°C) | Heat Index (°C) | Pressure | Precipitation (cm) | ||||||
|---|---|---|---|---|---|---|---|---|---|---|---|---|---|---|---|---|---|
| Air | Dwpt | 6 hour | altimeter (cm) | sea level (mb) | 1 hr | 3 hr | 6 hr | ||||||||||
| Max. | Min. | ||||||||||||||||
| 10 | 06:54 | W 9 | 16.09 | Fair | CLR | 23.3 | 2.8 | 26% | 76.1 | 1010.7 | |||||||
| 10 | 05:54 | W 17 | 16.09 | Fair | CLR | 21.7 | 3.3 | 30% | 76.05 | 1010.1 | |||||||
| 10 | 04:54 | W 7 | 16.09 | Fair | CLR | 22.2 | 3.9 | 28.3 | 21.7 | 30% | 76.05 | 1009.8 | |||||
| 10 | 03:54 | N 11 | 16.09 | Fair | CLR | 22.2 | 4.4 | 31% | 76.02 | 1009.6 | |||||||
| 10 | 02:54 | W 20 | 16.09 | Fair | CLR | 23.9 | 5 | 29% | 25 | 76.02 | 1009.5 | ||||||
| 10 | 01:54 | W 22 | 16.09 | NULL | NULL | 24.4 | 3.9 | 26% | 25 | 76.02 | 1009.5 | ||||||
| 10 | 00:54 | W 20 | 16.09 | NULL | NULL | 26.1 | 1.1 | 20% | 26 | 76 | 1009.3 | ||||||
| 09 | 23:54 | NW 15 | 16.09 | NULL | NULL | 27.8 | -3.3 | 13% | 26 | 76 | 1009.1 | ||||||
| 09 | 22:54 | NW 15 | 16.09 | NULL | NULL | 27.2 | -6.1 | 36.7 | 26.7 | 11% | 26 | 75.97 | 1008.8 | ||||
| 09 | 21:54 | N 9 | 16.09 | NULL | NULL | 28.9 | -3.9 | 11% | 27 | 75.95 | 1008.5 | ||||||
| 09 | 18:54 | W 24 G 31 | 16.09 | NULL | NULL | 35 | -5 | 7% | 32 | 75.77 | 1006.4 | ||||||
| 09 | 17:54 | SW 6 | 16.09 | NULL | NULL | 35.6 | -8.3 | 5% | 33 | 75.77 | 1006.4 | ||||||
| 09 | 16:54 | Calm | 16.09 | NULL | NULL | 36.7 | -9.4 | 37.2 | 31.1 | 5% | 34 | 75.79 | 1006.5 | ||||
| 09 | 15:54 | Calm | 16.09 | NULL | NULL | 36.1 | -8.9 | 5% | 33 | 75.82 | 1007.0 | ||||||
| 09 | 14:54 | Calm | 16.09 | NULL | NULL | 36.1 | -7.2 | 6% | 33 | 75.9 | 1007.9 | ||||||
| 09 | 13:54 | N 6 | 16.09 | NULL | NULL | 35 | -6.7 | 6% | 32 | 75.97 | 1008.8 | ||||||
| 09 | 12:54 | Calm | 16.09 | NULL | NULL | 33.9 | -5.6 | 7% | 31 | 76.02 | 1009.6 | ||||||
| 09 | 11:54 | NW 7 | 16.09 | NULL | NULL | 32.8 | -5 | 8% | 30 | 76.07 | 1010.3 | ||||||
| 09 | 10:54 | Calm | 16.09 | NULL | NULL | 31.1 | -3.3 | 31.1 | 20.6 | 10% | 29 | 76.12 | 1010.8 | ||||
| 09 | 09:54 | NW 19 | 16.09 | NULL | NULL | 30 | -2.8 | 12% | 28 | 76.12 | 1011.0 | ||||||
| 09 | 08:54 | NW 11 | 16.09 | Fair | CLR | 27.2 | -1.1 | 16% | 26 | 76.12 | 1011.2 | ||||||
| 09 | 07:54 | NW 9 | 16.09 | Fair | CLR | 24.4 | 0.6 | 21% | 25 | 76.12 | 1011.3 | ||||||
| 09 | 06:54 | W 11 | 16.09 | Fair | CLR | 22.2 | 1.1 | 25% | 76.1 | 1010.8 | |||||||
| 09 | 05:54 | W 9 | 16.09 | Fair | CLR | 20.6 | 1.1 | 27% | 76.05 | 1010.1 | |||||||
| 09 | 04:54 | W 13 | 16.09 | Fair | CLR | 21.1 | 1.1 | 28.3 | 21.1 | 27% | 76.05 | 1009.8 | |||||
| 09 | 01:54 | W 19 | 16.09 | Fair | CLR | 24.4 | -0.6 | 19% | 25 | 76.05 | 1009.9 | ||||||
| 09 | 00:54 | W 17 | 16.09 | NULL | NULL | 25.6 | 0 | 19% | 25 | 76.07 | 1010.1 | ||||||
| 08 | 23:54 | W 19 | 16.09 | NULL | NULL | 27.2 | 2.8 | 21% | 26 | 76.07 | 1010.1 | ||||||
| 08 | 22:54 | N 11 | 16.09 | NULL | NULL | 28.3 | 3.9 | 36.7 | 27.8 | 21% | 27 | 76.05 | 1009.9 | ||||
| 08 | 19:54 | SW 30 | 16.09 | NULL | NULL | 31.1 | 1.7 | 15% | 29 | 75.9 | 1008.0 | ||||||
| 08 | 18:54 | SW 31 | 16.09 | NULL | NULL | 33.9 | -3.9 | 8% | 31 | 75.87 | 1007.4 | ||||||
| 08 | 17:54 | SW 30 G 35 | 16.09 | NULL | NULL | 36.1 | -5.6 | 7% | 33 | 75.87 | 1007.4 | ||||||
| 08 | 16:54 | NW 13 | 16.09 | NULL | NULL | 36.7 | -6.7 | 37.2 | 32.2 | 6% | 34 | 75.9 | 1007.7 | ||||
| 08 | 15:54 | NE 7 | 16.09 | NULL | NULL | 36.1 | -7.2 | 6% | 33 | 75.92 | 1008.3 | ||||||
| 08 | 14:54 | N 7 | 16.09 | NULL | NULL | 36.1 | -7.2 | 6% | 33 | 76 | 1009.1 | ||||||
| 08 | 12:54 | Vrbl 6 | 16.09 | NULL | NULL | 34.4 | -5.6 | 7% | 32 | 76.12 | 1010.9 | ||||||
| 08 | 11:54 | Calm | 16.09 | NULL | NULL | 33.3 | -4.4 | 8% | 31 | 76.15 | 1011.4 | ||||||
| 08 | 10:54 | NW 22 | 16.09 | NULL | NULL | 32.8 | -2.2 | 32.8 | 22.8 | 10% | 30 | 76.17 | 1011.8 | ||||
| 08 | 08:54 | NW 20 | 16.09 | Fair | CLR | 28.3 | 0.6 | 17% | 27 | 76.25 | 1012.6 | ||||||
| 08 | 07:54 | NW 15 | 16.09 | Fair | CLR | 26.1 | 0 | 18% | 25 | 76.25 | 1012.8 | ||||||
| 08 | 06:54 | W 13 | 16.09 | Fair | CLR | 23.9 | 0.6 | 22% | 25 | 76.23 | 1012.3 | ||||||
| 08 | 05:54 | NW 13 | 16.09 | Fair | CLR | 23.3 | 0.6 | 22% | 76.17 | 1011.7 | |||||||
| 08 | 04:54 | N 11 | 16.09 | Fair | CLR | 23.9 | 1.1 | 27.2 | 23.3 | 22% | 25 | 76.15 | 1011.3 | ||||
| 08 | 03:54 | N 13 | 16.09 | Fair | CLR | 23.9 | 1.7 | 23% | 25 | 76.12 | 1011.0 | ||||||
| 08 | 01:54 | Vrbl 6 | 16.09 | Fair | CLR | 26.1 | 2.2 | 21% | 26 | 76.12 | 1011.0 | ||||||
| 07 | 23:54 | N 13 | 16.09 | NULL | NULL | 26.1 | 3.3 | 23% | 26 | 76.15 | 1011.3 | ||||||
| 07 | 22:54 | NW 26 G 46 | 16.09 | NULL | NULL | 27.2 | 3.3 | 33.9 | 27.2 | 21% | 26 | 76.12 | 1011.1 | ||||
| 07 | 21:54 | W 19 G 33 | 16.09 | NULL | NULL | 28.3 | 1.7 | 18% | 27 | 76.12 | 1011.2 | ||||||
| 07 | 20:54 | W 17 | 16.09 | NULL | NULL | 28.9 | -0.6 | 15% | 27 | 76.1 | 1010.7 | ||||||
| 07 | 19:54 | SW 19 | 16.09 | NULL | NULL | 30 | -0.6 | 14% | 28 | 76.02 | 1009.9 | ||||||
| 07 | 18:54 | N 9 | 16.09 | NULL | NULL | 32.8 | -4.4 | 9% | 30 | 75.97 | 1009.4 | ||||||
| 07 | 17:54 | N 9 | 16.09 | NULL | NULL | 33.3 | -4.4 | 8% | 31 | 75.97 | 1009.4 | ||||||
| 07 | 16:54 | N 11 G 30 | 16.09 | NULL | NULL | 33.9 | -3.9 | 34.4 | 29.4 | 8% | 31 | 76 | 1009.6 | ||||
| 07 | 15:54 | NW 13 | 16.09 | NULL | NULL | 33.9 | -3.9 | 8% | 31 | 76.02 | 1010.1 | ||||||
| 07 | 12:54 | Vrbl 6 | 16.09 | NULL | NULL | 31.7 | -1.7 | 11% | 30 | 76.23 | 1012.7 | ||||||
| 07 | 11:54 | Vrbl 6 | 16.09 | NULL | NULL | 31.7 | -1.1 | 12% | 30 | 76.28 | 1013.6 | ||||||
| 07 | 10:54 | Calm | 16.09 | NULL | NULL | 30 | 0 | 30 | 18.3 | 14% | 28 | 76.35 | 1014.3 | ||||
| 07 | 09:54 | SW 7 | 16.09 | Fair | CLR | 28.3 | 1.7 | 18% | 27 | 76.38 | 1014.6 | ||||||
| 07 | 08:54 | Vrbl 7 | 16.09 | Fair | CLR | 26.7 | 2.8 | 21% | 26 | 76.38 | 1014.8 | ||||||
| Date | Time (pdt) | Wind (kph) | Vis. (km) | Weather | Sky Cond. | Air | Dwpt | Max. | Min. | Relative Humidity | Wind Chill (°C) | Heat Index (°C) | altimeter (cm) | sea level (mb) | 1 hr | 3 hr | 6 hr |
| 6 hour | |||||||||||||||||
| Temperature (ºC) | Pressure | Precipitation (cm) | |||||||||||||||